DW7187 Weather Reports


time (UTC)temp
C
wind
direction
speed
KPH
gust
KPH
rain 1hr
cm
rain 24hr
cm
rain mn
cm
humidity
%
barometer
mb
20260508110017 7 0.0 0.0 0.00 0.03 0.03 90 1012.3
20260508105017 7 0.0 0.0 0.00 0.03 0.03 88 1012.4
20260508104017 7 0.0 3.2 0.00 0.03 0.03 88 1012.5
20260508103017 7 0.0 1.6 0.00 0.03 0.03 89 1012.6
20260508102017 7 0.0 0.0 0.00 0.03 0.03 87 1012.6
20260508101017 7 0.0 3.2 0.00 0.03 0.03 87 1012.4
20260508100017 7 0.0 1.6 0.03 0.03 0.03 88 1012.1
20260508095017 7 0.0 1.6 0.03 0.03 0.03 87 1011.9
20260508094017 8 0.0 4.8 0.03 0.03 0.03 86 1011.9
20260508093037 8 270 4.8 11.3 0.03 0.03 0.03 83 1012.2
20260508092037 8 270 3.2 9.7 0.03 0.03 0.03 86 1012.2
20260508091017 7 270 3.2 16.1 0.03 0.03 0.03 87 1012.3
20260508090017 7 225 6.4 19.3 0.00 0.00 0.00 87 1012.4
20260508085037 7 0.0 1.6 0.00 0.00 0.00 86 1012.6
20260508084017 7 0.0 3.2 0.00 0.00 0.00 85 1012.4
20260508083017 7 0.0 6.4 0.00 0.00 0.00 86 1012.2
20260508082017 6 0.0 1.6 0.00 0.00 0.00 87 1012.3
20260508081017 6 0.0 0.0 0.00 0.00 0.00 86 1012.4
20260508080017 7 0.0 0.0 0.00 0.00 0.00 86 1012.3
20260508075017 7 0.0 0.0 0.00 0.00 0.00 86 1012.5
20260508074017 7 0.0 0.0 0.00 0.00 0.00 85 1012.7
20260508073017 7 0.0 1.6 0.00 0.00 0.00 85 1012.8
20260508072037 7 0.0 0.0 0.00 0.00 0.00 85 1012.7
20260508071017 7 0.0 0.0 0.00 0.00 0.00 85 1012.8
20260508070051 8 0.0 3.2 0.00 0.00 0.00 84 1012.9
20260508065018 8 0.0 8.0 0.00 0.00 0.00 84 1013.0
20260508064017 8 248 1.6 11.3 0.00 0.00 0.00 82 1013.1
20260508063017 8 0.0 1.6 0.00 0.00 0.00 81 1012.8
20260508062037 7 0.0 8.0 0.00 0.00 0.00 81 1012.8
20260508061017 7 0.0 0.0 0.00 0.00 0.00 82 1012.9
20260508060017 7 0.0 1.6 0.00 0.00 0.00 80 1012.7
20260508055017 7 0.0 1.6 0.00 0.00 0.00 80 1012.8
20260508054017 7 0.0 1.6 0.00 0.00 0.00 79 1013.0
20260508053017 7 0.0 0.0 0.00 0.00 0.00 81 1013.0
20260508052017 7 0.0 0.0 0.00 0.00 0.00 85 1013.1
20260508051037 7 0.0 0.0 0.00 0.00 0.00 84 1013.1
20260508050017 7 0.0 0.0 0.00 0.00 0.00 83 1013.0
20260508045017 7 0.0 0.0 0.00 0.00 0.00 81 1013.1
20260508044037 7 0.0 0.0 0.00 0.00 0.00 80 1013.0
20260508043017 7 0.0 0.0 0.00 0.00 0.00 81 1013.0
20260508042017 7 0.0 0.0 0.00 0.00 0.00 81 1013.1
20260508041017 8 0.0 0.0 0.00 0.00 0.00 81 1013.5
20260508040018 8 0.0 0.0 0.00 0.00 0.00 77 1013.6
20260508035016 8 0.0 0.0 0.00 0.00 0.00 77 1013.5
20260508034016 8 0.0 3.2 0.00 0.00 0.00 73 1013.6
20260508033016 8 0.0 3.2 0.00 0.00 0.00 74 1013.6
20260508032016 8 293 1.6 8.0 0.00 0.00 0.00 72 1013.7
20260508031036 8 293 1.6 11.3 0.00 0.00 0.00 74 1013.7
20260508030016 7 248 1.6 8.0 0.00 0.00 0.00 77 1013.5
20260508025016 7 0.0 0.0 0.00 0.00 0.00 80 1013.4
20260508024016 6 0.0 0.0 0.00 0.00 0.00 83 1013.2
20260508023016 6 0.0 0.0 0.00 0.00 0.00 78 1012.9
20260508022016 6 0.0 0.0 0.00 0.00 0.00 80 1012.8
20260508021016 6 0.0 0.0 0.00 0.00 0.00 78 1012.8
20260508020016 6 0.0 0.0 0.00 0.00 0.00 78 1012.6
20260508015016 6 0.0 0.0 0.00 0.00 0.00 78 1012.6
20260508014016 6 0.0 0.0 0.00 0.00 0.00 76 1012.6
20260508013016 7 0.0 0.0 0.00 0.00 0.00 75 1012.4
20260508012016 7 0.0 0.0 0.00 0.00 0.00 72 1012.3
20260508011016 7 0.0 0.0 0.00 0.00 0.00 70 1012.4
20260508010016 8 0.0 0.0 0.00 0.00 0.00 70 1012.2
20260508005016 8 0.0 0.0 0.00 0.00 0.00 67 1012.3
20260508004036 9 0.0 0.0 0.00 0.00 0.00 62 1012.3
20260508003016 10 0.0 0.0 0.00 0.00 0.00 59 1012.1
20260508002016 10 0.0 0.0 0.00 0.00 0.00 55 1012.1
20260508001015 11 0.0 0.0 0.00 0.00 0.00 55 1012.0
20260508000015 11 0.0 1.6 0.00 0.00 0.00 54 1011.9
20260507235016 12 293 1.6 6.4 0.00 0.00 0.00 50 1011.8
20260507234016 12 338 3.2 14.5 0.00 0.00 0.00 49 1011.8
20260507233015 13 0 1.6 8.0 0.00 0.00 0.00 49 1011.8
20260507232016 12 23 1.6 9.7 0.00 0.00 0.00 53 1011.6
20260507231015 12 0 6.4 11.3 0.00 0.00 0.00 52 1011.7
20260507230015 12 338 1.6 11.3 0.00 0.00 0.00 51 1011.8
20260507225036 12 0.0 6.4 0.00 0.00 0.00 50 1011.8
20260507224016 12 23 4.8 11.3 0.00 0.00 0.00 49 1011.8
20260507223015 12 338 6.4 11.3 0.00 0.00 0.00 48 1011.8
20260507222015 12 338 3.2 9.7 0.00 0.00 0.00 54 1011.8
20260507221016 13 338 4.8 16.1 0.00 0.00 0.00 50 1011.8
20260507220015 13 270 8.0 19.3 0.00 0.00 0.00 47 1011.6
20260507215015 12 270 6.4 19.3 0.00 0.00 0.00 50 1011.6
20260507214018 12 338 1.6 9.7 0.00 0.00 0.00 48 1011.6
20260507213017 12 248 1.6 9.7 0.00 0.00 0.00 50 1011.4
20260507212017 13 270 4.8 16.1 0.00 0.00 0.00 50 1011.4
20260507211037 13 293 4.8 14.5 0.00 0.00 0.00 53 1011.5
20260507210017 13 270 8.0 20.9 0.00 0.00 0.00 51 1011.5
20260507205017 12 270 6.4 17.7 0.00 0.00 0.00 50 1011.5
20260507204017 13 293 6.4 17.7 0.00 0.00 0.00 51 1011.7
20260507203017 13 270 3.2 12.9 0.00 0.00 0.00 57 1011.4
20260507202017 13 270 8.0 20.9 0.00 0.00 0.00 53 1011.3
20260507201017 12 270 6.4 16.1 0.00 0.00 0.00 57 1011.5
20260507200017 12 270 8.0 20.9 0.00 0.00 0.00 53 1011.4
20260507195017 12 293 4.8 12.9 0.00 0.00 0.00 55 1011.4
20260507194017 13 270 3.2 16.1 0.00 0.00 0.00 55 1011.7
20260507193018 13 270 4.8 17.7 0.00 0.00 0.00 51 1011.7
20260507192017 13 248 4.8 14.5 0.00 0.00 0.00 54 1011.7
20260507191015 13 270 8.0 17.7 0.00 0.00 0.00 50 1011.8
20260507190017 13 270 3.2 16.1 0.00 0.00 0.00 50 1011.8
20260507185038 12 270 6.4 19.3 0.00 0.00 0.00 56 1011.7
20260507184057 13 293 6.4 14.5 0.00 0.00 0.00 54 1011.8
20260507183037 12 248 3.2 14.5 0.00 0.00 0.00 59 1011.8
20260507182017 12 270 6.4 20.9 0.00 0.00 0.00 56 1011.8
20260507181017 12 270 8.0 24.1 0.00 0.00 0.00 56 1011.9
20260507180017 12 270 4.8 16.1 0.00 0.00 0.00 54 1011.8
20260507175017 13 270 4.8 11.3 0.00 0.00 0.00 57 1012.0
20260507174017 12 270 6.4 16.1 0.00 0.00 0.00 56 1012.1
20260507173017 12 293 3.2 11.3 0.00 0.00 0.00 54 1012.1
20260507172022 13 270 3.2 11.3 0.00 0.00 0.00 52 1012.3
20260507171017 12 248 3.2 16.1 0.00 0.00 0.00 57 1012.2
20260507170017 13 315 4.8 14.5 0.00 0.00 0.00 53 1012.2
20260507165017 13 293 3.2 12.9 0.00 0.00 0.00 52 1012.1
20260507164017 12 270 4.8 14.5 0.00 0.00 0.00 54 1012.2
20260507163017 12 315 1.6 16.1 0.00 0.00 0.00 59 1012.3
20260507162037 12 270 1.6 6.4 0.00 0.00 0.00 57 1012.2
20260507161017 12 270 4.8 14.5 0.00 0.00 0.00 55 1012.3
20260507160017 12 270 6.4 17.7 0.00 0.00 0.00 56 1012.3
20260507155017 11 270 6.4 12.9 0.00 0.00 0.00 59 1012.2
20260507154017 12 23 4.8 12.9 0.00 0.00 0.00 57 1012.2
20260507153017 13 293 3.2 17.7 0.00 0.00 0.00 59 1012.3
20260507152017 12 293 4.8 12.9 0.00 0.00 0.00 58 1012.3
20260507151017 12 248 1.6 11.3 0.00 0.00 0.00 62 1012.4
20260507150037 12 293 4.8 9.7 0.00 0.00 0.00 58 1012.5
20260507145017 12 293 3.2 9.7 0.00 0.00 0.00 61 1012.6
20260507144017 11 293 3.2 12.9 0.00 0.00 0.00 67 1012.5
20260507143017 11 293 3.2 12.9 0.00 0.00 0.00 67 1012.5
20260507142017 11 293 3.2 8.0 0.00 0.00 0.00 69 1012.7
20260507141017 10 270 4.8 14.5 0.00 0.00 0.00 71 1012.7
20260507140017 10 270 3.2 8.0 0.00 0.00 0.00 74 1012.9
20260507135017 10 293 1.6 6.4 0.00 0.00 0.00 79 1012.8
20260507134017 9 0.0 4.8 0.00 0.00 0.00 81 1013.0
20260507133017 8 293 1.6 6.4 0.00 0.00 0.00 82 1013.0
20260507132058 8 293 3.2 11.3 0.00 0.00 0.00 83 1013.0
20260507131017 8 293 1.6 6.4 0.00 0.00 0.00 85 1012.8
20260507130017 7 293 1.6 4.8 0.00 0.00 0.00 86 1012.8
20260507125037 7 293 1.6 6.4 0.00 0.00 0.00 87 1012.8
20260507124017 7 0.0 4.8 0.00 0.00 0.00 89 1012.9
20260507123017 7 270 1.6 4.8 0.00 0.00 0.00 90 1012.7
20260507122017 6 0.0 0.0 0.00 0.00 0.00 92 1012.8
20260507121017 6 0.0 0.0 0.00 0.00 0.00 94 1012.8
20260507120037 5 0.0 0.0 0.00 0.00 0.00 95 1012.6
20260507115017 5 0.0 0.0 0.00 0.00 0.00 95 1012.6
20260507114017 5 0.0 1.6 0.00 0.00 0.00 97 1012.7
20260507113017 4 0.0 0.0 0.00 0.00 0.00 97 1012.6
20260507112037 3 0.0 0.0 0.00 0.00 0.00 97 1012.5
20260507111037 3 0.0 0.0 0.00 0.00 0.00 97 1012.3